[[{"header":{"parameterUnit":"m.s-1","parameterCategory":2,"la1":30.2991,"la2":30.254,"lo1":-89.0895,"lo2":-89.0444,"dy":0.0017,"dx":0.0017,"nx":28,"ny":28,"refTime":"2024-06-02T03:00:00:Z","depth":"0","parameterNumber":2,"parameterNumberName":"U-component_of_CURRENTS"},"data":[0,0,0,0,0,0,0,0,0,0,0,0,0,0,0,0,0,0,0,0,0,0,0,0,0,0,0,0,0,0,0,0,0,0,0,0,0,0,0,0,0,0,0,0,0,0,0,0,0,0,0,0,0,0,0,0,0,0,0.1487,0.1487,0,0.1476,0.1475,0.1475,0.15,0.1501,0.1502,0.1503,0.1478,0.1476,0.1475,0,0,0,0,0,0,0,0,0,0,0,0,0,0.1498,0.1498,0.1487,0.1487,0.1487,0.1476,0.1475,0.1475,0.1499,0.1501,0.1502,0.1503,0.1478,0.1477,0.1475,0,0,0,0,0,0,0,0,0,0,0,0,0,0.1488,0.1498,0.1487,0.15,0.1502,0.1476,0.1475,0.1475,0.1499,0.1501,0.1502,0.1504,0.1479,0.1477,0.1474,0.1427,0,0,0.1467,0.1466,0,0,0,0,0,0,0,0,0.1489,0.1487,0.1498,0.1499,0.1501,0.1493,0.1471,0.1459,0.1499,0.1497,0.1503,0.1505,0.1483,0.148,0.147,0.1426,0.1425,0.1466,0.1465,0.1464,0.1463,0,0,0,0,0,0,0,0.1489,0.1488,0.1479,0.1498,0.15,0.1496,0.1497,0.1468,0.1478,0.1497,0.15,0.1503,0.1483,0.1472,0.147,0.1424,0.1467,0.1464,0.1463,0.1462,0.14,0.14,0,0,0,0,0,0,0.1496,0.1488,0.148,0.1479,0.1502,0.1495,0.1495,0.1492,0.1479,0.148,0.1501,0.1504,0.1476,0.1473,0.1469,0.1461,0.1464,0.1462,0.146,0.1401,0.14,0.14,0,0,0,0,0,0,0.1497,0.1495,0.148,0.1487,0.1485,0.1494,0.1489,0.1491,0.149,0.1483,0.1483,0.1501,0.1477,0.1473,0.1454,0.1459,0.146,0.1458,0.1401,0.1401,0.14,0.1414,0,0,0,0,0,0,0.1497,0.1495,0.1484,0.1487,0.1485,0.1462,0.1488,0.1489,0.149,0.1493,0.1482,0.1481,0.1478,0.1458,0.1452,0.1455,0.1456,0.1401,0.1401,0.14,0.1414,0.1414,0.1415,0,0,0,0,0,0.1497,0.1473,0.1483,0.1482,0.1472,0.1461,0.1459,0.1469,0.1489,0.1476,0.148,0.1482,0.1453,0.1455,0.1448,0.1451,0.1401,0.1401,0.14,0.1413,0.1414,0.1414,0,0,0,0,0,0,0.147,0.1474,0.1485,0.1463,0.1464,0.1467,0.1454,0.1467,0.1459,0.1467,0.1468,0.1466,0.1453,0.1444,0.1448,0.1434,0.1431,0.1429,0.1443,0.1443,0.1444,0.1473,0.1454,0,0,0,0,0,0.146,0.1448,0.1454,0.1439,0.1437,0.1447,0.1442,0.1453,0.1453,0.1452,0.1448,0.1447,0.1441,0.1438,0.1423,0.1405,0.1448,0.1406,0.1406,0.1407,0.1426,0.1485,0.1493,0.1399,0.1399,0.1399,0,0,0.145,0.1448,0.1443,0.1433,0.1434,0.1436,0.1447,0.1441,0.1451,0.1447,0.1447,0.1438,0.1435,0.1424,0.1419,0.1421,0.146,0.1406,0.1407,0.1426,0.1486,0.1495,0.1504,0.1399,0.1399,0.1399,0,0,0.1435,0.1419,0.1414,0.1413,0.1416,0.1418,0.1419,0.1422,0.1428,0.1421,0.1433,0.1434,0.1409,0.1422,0.1424,0.1415,0.1455,0.1404,0.1435,0.1491,0.15,0.1509,0.1597,0.1614,0.1411,0.1411,0.1411,0,0.143,0.1424,0.1409,0.1411,0.1418,0.1415,0.1426,0.142,0.1421,0.1436,0.1424,0.1433,0.1417,0.1442,0.144,0.1419,0.147,0.1433,0.1495,0.1504,0.1513,0.1601,0.1619,0.1411,0.1411,0.1411,0.1411,0,0.1424,0.1421,0.1415,0.1424,0.1421,0.142,0.1426,0.1424,0.1431,0.1444,0.1458,0.1442,0.1465,0.1447,0.1438,0.1487,0.1512,0.1486,0.15,0.1524,0.1615,0.1633,0.1412,0.1412,0.1412,0.1412,0,0,0.1419,0.1417,0.1417,0.1431,0.1432,0.1432,0.1444,0.1463,0.1491,0.1479,0.1528,0.1505,0.1515,0.1519,0.151,0.1544,0.1639,0.1542,0.1545,0.1643,0.1802,0.1723,0.1736,0.1627,0.163,0.1632,0.185,0,0.143,0.1441,0.1438,0.1454,0.1462,0.1468,0.1482,0.1499,0.1511,0.1544,0.1551,0.1575,0.1538,0.1554,0.1585,0.1622,0.1685,0.1585,0.1753,0.176,0.1696,0.1752,0.1599,0.1771,0.1868,0.1871,0.1873,0,0.1431,0.1441,0.1463,0.1484,0.149,0.1501,0.154,0.1553,0.1595,0.1612,0.1649,0.1657,0.1714,0.1667,0.1785,0.1726,0.1777,0.1801,0.181,0.1745,0.1713,0.1757,0.1801,0.1715,0.1902,0.19,0.1898,0,0.1433,0.1455,0.1476,0.1483,0.1506,0.1528,0.1544,0.1581,0.1607,0.1669,0.1708,0.1765,0.1815,0.1871,0.1919,0.187,0.2055,0.1998,0.1989,0.1987,0.1894,0.1877,0.1881,0.2104,0.2104,0.2103,0.2103,0,0.1435,0.1449,0.1482,0.149,0.1521,0.1542,0.1584,0.1606,0.1666,0.1705,0.1751,0.1798,0.1867,0.1961,0.1988,0.206,0.2129,0.2024,0.2036,0.1893,0.1874,0.1821,0.1779,0.2111,0.211,0.2108,0.2107,0,0.1416,0.1441,0.146,0.1501,0.1516,0.1536,0.1592,0.1621,0.1688,0.1749,0.1778,0.1875,0.1978,0.2057,0.2173,0.2157,0.2132,0.2233,0.2074,0.2059,0.1893,0.1857,0.1814,0.1774,0.2251,0.2251,0.225,0,0.1403,0.1415,0.1455,0.1472,0.1488,0.153,0.1554,0.1617,0.1648,0.1774,0.1799,0.1937,0.1981,0.2148,0.2141,0.2216,0.2141,0.2141,0.1986,0.1886,0.1857,0.1742,0.1704,0.1902,0.1899,0.1896,0.1894,0,0.1384,0.1399,0.1419,0.1444,0.1472,0.1499,0.1541,0.1571,0.1648,0.1703,0.1776,0.1831,0.1957,0.194,0.2047,0.2058,0.1958,0.2081,0.2021,0.162,0.1456,0.1422,0.1791,0.1869,0.1871,0.1873,0.1874,0.1875,0.1372,0.1372,0.1399,0.1414,0.1441,0.1453,0.1448,0.1494,0.153,0.157,0.1672,0.169,0.1749,0.1823,0.1847,0.1753,0.1767,0.1667,0.1657,0.1569,0.1424,0.1743,0.1783,0.1785,0.1786,0.1788,0.1789,0,0.1348,0.1352,0.1368,0.1377,0.1369,0.1399,0.142,0.1397,0.1389,0.1432,0.1454,0.1453,0.1435,0.1485,0.1423,0.1342,0.1266,0.1309,0.1119,0.1127,0.1458,0.133,0.1218,0.1218,0.1218,0.1218,0.1218,0.1218,0.1345,0.1338,0.1333,0.1305,0.1302,0.126,0.1248,0.122,0.1219,0.1177,0.1144,0.117,0.1197,0.1094,0.1005,0.1003,0.092,0.081,0.0891,0.1106,0.1138,0.1168,0.1037,0.0865,0.0865,0.046,0.0457,0.0454]},{"header":{"parameterUnit":"m.s-1","parameterCategory":2,"la1":30.2991,"la2":30.254,"lo1":-89.0895,"lo2":-89.0444,"dy":0.0017,"dx":0.0017,"nx":28,"ny":28,"refTime":"2024-06-02T03:00:00:Z","depth":"0","parameterNumber":3,"parameterNumberName":"V-component_of_CURRENTS"},"data":[0,0,0,0,0,0,0,0,0,0,0,0,0,0,0,0,0,0,0,0,0,0,0,0,0,0,0,0,0,0,0,0,0,0,0,0,0,0,0,0,0,0,0,0,0,0,0,0,0,0,0,0,0,0,0,0,0,0,0.0107,0.0107,0,0.0036,0.0035,0.0034,0.0006,0.0006,0.0006,0.0006,-0.0049,-0.0051,-0.0052,0,0,0,0,0,0,0,0,0,0,0,0,0,0.0211,0.0209,0.0108,0.0107,0.0105,0.0036,0.0035,0.0034,0.0006,0.0006,0.0006,0.0006,-0.0049,-0.0051,-0.0052,0,0,0,0,0,0,0,0,0,0,0,0,0,0.0156,0.0208,0.0108,0.0082,0.0079,0.0036,0.0035,0.0034,0.0006,0.0006,0.0006,0.0006,-0.0048,-0.005,-0.0053,-0.0069,0,0,-0.006,-0.0061,0,0,0,0,0,0,0,0,0.0159,0.0153,0.0087,0.0084,0.008,0.0029,0.0051,-0.0,0.0006,0.0035,0.0006,0.0006,-0.0023,-0.0027,-0.0039,-0.0072,-0.0074,-0.006,-0.0061,-0.0062,-0.0063,0,0,0,0,0,0,0,0.0163,0.0156,0.008,0.0086,0.0082,0.0071,0.0063,0.0041,0.0008,0.0033,0.003,0.002,-0.0024,-0.0037,-0.0041,-0.0075,-0.006,-0.0062,-0.0063,-0.0064,-0.0129,-0.013,0,0,0,0,0,0,0.0169,0.0159,0.0083,0.0078,0.0119,0.0069,0.0061,0.0046,0.0008,0.0001,0.002,0.0019,-0.0033,-0.0038,-0.0043,-0.0056,-0.0062,-0.0064,-0.0066,-0.0129,-0.013,-0.013,0,0,0,0,0,0,0.0172,0.0163,0.0086,0.0116,0.0105,0.0067,0.0051,0.0045,0.0031,-0.0002,-0.0008,0.0013,-0.0033,-0.0039,-0.0065,-0.0059,-0.0066,-0.0068,-0.0129,-0.0129,-0.013,-0.0089,0,0,0,0,0,0,0.0175,0.0164,0.0161,0.0117,0.0104,0.0064,0.005,0.0043,0.0024,0.0022,-0.001,-0.0015,-0.0033,-0.0062,-0.0068,-0.0062,-0.0069,-0.0128,-0.0129,-0.013,-0.0089,-0.0088,-0.0086,0,0,0,0,0,0.0179,0.0172,0.0161,0.0152,0.0098,0.0063,0.0056,0.003,0.0024,0.0019,-0.0006,-0.0014,-0.007,-0.0064,-0.0071,-0.0066,-0.0128,-0.0129,-0.013,-0.009,-0.0088,-0.0086,0,0,0,0,0,0,0.0217,0.0167,0.0154,0.0133,0.0103,0.0058,0.0052,0.0032,0.0007,0.0008,-0.0022,-0.0029,-0.0047,-0.0067,-0.006,-0.0088,-0.0099,-0.0101,-0.0067,-0.0065,-0.0064,-0.0022,-0.0071,0,0,0,0,0,0.0223,0.0202,0.0158,0.0142,0.013,0.0092,0.0076,0.0057,0.0026,0.0016,-0.001,-0.0035,-0.0056,-0.0069,-0.0091,-0.0109,-0.0096,-0.0111,-0.0109,-0.0108,-0.008,-0.0069,-0.0063,-0.0132,-0.0132,-0.0132,0,0,0.0232,0.0203,0.0191,0.0149,0.0126,0.0113,0.0083,0.0061,0.0054,0.0014,-0.0001,-0.0029,-0.006,-0.0078,-0.0088,-0.0094,-0.0082,-0.0109,-0.0107,-0.0079,-0.0069,-0.0062,-0.0056,-0.0133,-0.0133,-0.0133,0,0,0.0242,0.0218,0.0206,0.0186,0.0151,0.0128,0.0124,0.0081,0.0068,0.0043,0.0017,-0.0002,-0.0046,-0.0058,-0.0071,-0.0074,-0.0071,-0.0092,-0.005,-0.0041,-0.0034,-0.0028,0.0004,0.0012,-0.0093,-0.0093,-0.0093,0,0.0257,0.0237,0.02,0.0189,0.0179,0.0139,0.0136,0.0116,0.007,0.0068,0.0046,0.0007,-0.0027,-0.0029,-0.0036,-0.0065,-0.0055,-0.0054,-0.0035,-0.0029,-0.0023,0.0008,0.0017,-0.0091,-0.0091,-0.0091,-0.0091,0,0.0261,0.025,0.0244,0.0219,0.0205,0.0195,0.0164,0.0153,0.0131,0.0112,0.0102,0.006,0.0045,0.0019,-0.0012,0.0006,0.0003,-0.0031,-0.0032,-0.0013,0.0017,0.0026,-0.0088,-0.0089,-0.0089,-0.009,0,0,0.028,0.0252,0.0252,0.0254,0.0223,0.0214,0.0209,0.0196,0.0214,0.017,0.0195,0.0141,0.0128,0.0113,0.0075,0.0073,0.0108,0.0039,0.0039,0.0087,0.015,0.0171,0.0183,0.0074,0.0076,0.0077,0.0158,0,0.0296,0.0294,0.0272,0.0282,0.0282,0.0258,0.0264,0.0251,0.024,0.0255,0.0223,0.0229,0.0161,0.0165,0.015,0.0118,0.0132,0.0091,0.0111,0.0113,0.0143,0.0194,0.0194,0.0268,0.0166,0.0168,0.0169,0,0.0307,0.0307,0.0319,0.0324,0.0325,0.0331,0.0351,0.0351,0.0359,0.0356,0.0357,0.0336,0.0333,0.0276,0.0257,0.0232,0.0207,0.0181,0.0183,0.0203,0.0151,0.0229,0.0288,0.0274,0.0182,0.0181,0.018,0,0.0342,0.0341,0.0358,0.0357,0.0357,0.0372,0.0379,0.0387,0.0415,0.0438,0.0477,0.0449,0.0475,0.0418,0.0359,0.0311,0.0356,0.028,0.0288,0.0289,0.0297,0.0297,0.0363,0.0299,0.0299,0.0298,0.0298,0,0.0364,0.0378,0.0383,0.0393,0.0437,0.0421,0.0479,0.0481,0.0522,0.0586,0.0545,0.0608,0.0513,0.0517,0.0425,0.0405,0.0412,0.0332,0.0321,0.031,0.031,0.0303,0.0292,0.0301,0.0301,0.03,0.03,0,0.039,0.039,0.0416,0.0435,0.0453,0.0487,0.0548,0.0597,0.0626,0.0717,0.0739,0.0756,0.0758,0.0674,0.0617,0.0529,0.0478,0.0471,0.048,0.0468,0.0429,0.042,0.0495,0.0494,0.0485,0.0486,0.0487,0,0.0399,0.0415,0.0456,0.0492,0.0506,0.0562,0.0614,0.0648,0.0709,0.0814,0.0872,0.092,0.095,0.0887,0.0753,0.0644,0.0579,0.0575,0.0475,0.047,0.045,0.0423,0.0414,0.0502,0.0503,0.0504,0.0504,0,0.0429,0.0445,0.0474,0.0544,0.0605,0.0675,0.075,0.0814,0.0878,0.0957,0.1063,0.1099,0.1072,0.0977,0.0852,0.0751,0.0574,0.0589,0.0576,0.0487,0.0472,0.045,0.0419,0.0512,0.0511,0.051,0.051,0.051,0.0464,0.0493,0.0541,0.0606,0.0681,0.0777,0.0835,0.0924,0.103,0.113,0.1178,0.1217,0.1132,0.0959,0.0851,0.0679,0.0666,0.0586,0.0584,0.0563,0.0545,0.0554,0.0629,0.0629,0.0629,0.0629,0.0629,0,0.0506,0.0541,0.0603,0.0687,0.0765,0.08,0.0918,0.0972,0.1087,0.1175,0.1243,0.1237,0.1113,0.0961,0.0771,0.0676,0.06,0.0626,0.0577,0.0569,0.0573,0.0555,0.0628,0.0628,0.0628,0.0628,0.0628,0.0628,0.0539,0.0598,0.0622,0.0748,0.0807,0.0903,0.0964,0.1044,0.1105,0.1199,0.1225,0.1261,0.1231,0.0939,0.0746,0.0679,0.0622,0.0612,0.0602,0.0583,0.0577,0.0572,0.0552,0.0623,0.0623,0.0575,0.0574,0.0574]}],[{"header":{"parameterUnit":"m.s-1","parameterCategory":2,"la1":30.2991,"la2":30.254,"lo1":-89.0895,"lo2":-89.0444,"dy":0.0017,"dx":0.0017,"nx":28,"ny":28,"refTime":"2024-06-02T03:00:00:Z","depth":"2","parameterNumber":2,"parameterNumberName":"U-component_of_CURRENTS"},"data":[0,0,0,0,0,0,0,0,0,0,0,0,0,0,0,0,0,0,0,0,0,0,0,0,0,0,0,0,0,0,0,0,0,0,0,0,0,0,0,0,0,0,0,0,0,0,0,0,0,0,0,0,0,0,0,0,0,0,0.1535,0.1535,0,0.1525,0.1525,0.1524,0.1548,0.1549,0.155,0.1551,0.1527,0.1526,0.1524,0,0,0,0,0,0,0,0,0,0,0,0,0,0.1536,0.1536,0.1535,0.1535,0.1535,0.1525,0.1525,0.1524,0.1548,0.1549,0.1551,0.1552,0.1528,0.1526,0.1524,0,0,0,0,0,0,0,0,0,0,0,0,0,0.1529,0.1536,0.1535,0.1548,0.155,0.1525,0.1525,0.1524,0.1548,0.1549,0.1551,0.1552,0.1528,0.1526,0.1524,0.1478,0,0,0.1516,0.1515,0,0,0,0,0,0,0,0,0.1529,0.1529,0.1546,0.1547,0.1549,0.1542,0.1517,0.1509,0.1547,0.1545,0.1551,0.1553,0.1532,0.1529,0.152,0.1477,0.1476,0.1516,0.1515,0.1514,0.1513,0,0,0,0,0,0,0,0.153,0.1529,0.1528,0.1546,0.1548,0.1542,0.1542,0.1515,0.1527,0.1546,0.1548,0.1551,0.1532,0.1522,0.1519,0.1475,0.1516,0.1514,0.1513,0.1512,0.1451,0.1451,0,0,0,0,0,0,0.1537,0.1529,0.1529,0.1528,0.1546,0.1541,0.1541,0.154,0.1528,0.1529,0.155,0.1552,0.1525,0.1522,0.1519,0.1511,0.1514,0.1512,0.151,0.1452,0.1451,0.1451,0,0,0,0,0,0,0.1537,0.1537,0.1529,0.1531,0.153,0.154,0.1538,0.1539,0.1538,0.1532,0.1532,0.1549,0.1526,0.1522,0.1504,0.1508,0.151,0.1508,0.1452,0.1452,0.1451,0.1464,0,0,0,0,0,0,0.1537,0.1537,0.1527,0.1532,0.1531,0.1511,0.1537,0.1538,0.1539,0.1542,0.153,0.153,0.1527,0.1507,0.1501,0.1505,0.1506,0.1452,0.1452,0.1451,0.1464,0.1464,0.1465,0,0,0,0,0,0.1537,0.1516,0.1527,0.1526,0.1521,0.151,0.1508,0.1518,0.1537,0.1525,0.1529,0.1531,0.1502,0.1504,0.1498,0.1501,0.1452,0.1452,0.1451,0.1464,0.1464,0.1465,0,0,0,0,0,0,0.151,0.1517,0.1529,0.1511,0.1512,0.1516,0.1502,0.1516,0.1507,0.1515,0.1517,0.1515,0.1502,0.1494,0.1497,0.1484,0.1481,0.1479,0.1493,0.1493,0.1494,0.1521,0.1504,0,0,0,0,0,0.15,0.149,0.1499,0.1486,0.1484,0.1495,0.149,0.1501,0.1501,0.15,0.1497,0.1495,0.149,0.1487,0.1472,0.1455,0.1498,0.1456,0.1457,0.1457,0.1475,0.1536,0.1544,0.145,0.145,0.145,0,0,0.1491,0.1491,0.1488,0.148,0.1482,0.1484,0.1495,0.1489,0.15,0.1496,0.1496,0.1487,0.1484,0.1473,0.1468,0.1471,0.1509,0.1457,0.1457,0.1475,0.1536,0.1546,0.1554,0.145,0.145,0.145,0,0,0.1477,0.1464,0.146,0.1459,0.1462,0.1465,0.1466,0.147,0.1475,0.1469,0.148,0.1481,0.1457,0.1471,0.1474,0.1464,0.1504,0.1453,0.1482,0.154,0.155,0.1558,0.1643,0.1659,0.146,0.146,0.146,0,0.1472,0.1469,0.1455,0.1457,0.1464,0.1462,0.1473,0.1467,0.1468,0.1484,0.1471,0.1481,0.1466,0.1492,0.1488,0.1468,0.1517,0.1481,0.1544,0.1553,0.1562,0.1647,0.1665,0.146,0.146,0.146,0.146,0,0.1467,0.1466,0.1459,0.1469,0.1466,0.1465,0.1472,0.147,0.1477,0.1491,0.1505,0.149,0.1513,0.1496,0.1486,0.1535,0.1558,0.1535,0.1549,0.1573,0.166,0.1678,0.1461,0.1461,0.1461,0.1461,0,0,0.146,0.1461,0.1461,0.1475,0.1476,0.1477,0.1488,0.1508,0.1537,0.1526,0.1575,0.1552,0.1563,0.1567,0.1557,0.1592,0.1685,0.1589,0.1592,0.1687,0.1847,0.1761,0.1773,0.1676,0.1679,0.1681,0.1891,0,0.147,0.1483,0.1481,0.1497,0.1505,0.1511,0.1526,0.1544,0.1556,0.1591,0.1599,0.1624,0.1585,0.1601,0.1633,0.1669,0.173,0.1632,0.1799,0.1805,0.1736,0.179,0.1534,0.1689,0.1909,0.1912,0.1914,0,0.1467,0.148,0.1503,0.1527,0.1532,0.1544,0.1583,0.1597,0.1641,0.1658,0.1696,0.1705,0.1761,0.1714,0.183,0.1773,0.1821,0.1845,0.1853,0.1783,0.1752,0.1696,0.1714,0.1945,0.1942,0.194,0.1938,0,0.1465,0.1491,0.1514,0.1521,0.1547,0.1569,0.1586,0.1625,0.1651,0.1714,0.1754,0.1812,0.186,0.1916,0.1961,0.1914,0.2096,0.2041,0.2024,0.2021,0.1841,0.1815,0.2146,0.2146,0.2145,0.2145,0.2144,0,0.1463,0.1477,0.1518,0.1526,0.1559,0.1582,0.1624,0.1648,0.1709,0.1749,0.1795,0.1844,0.1911,0.2004,0.203,0.2096,0.217,0.2057,0.2069,0.1837,0.1809,0.2046,0.2032,0.2153,0.2151,0.2149,0.2148,0,0.1436,0.1466,0.1489,0.1535,0.1552,0.1574,0.1631,0.1661,0.1729,0.1791,0.182,0.1917,0.2018,0.2095,0.221,0.2189,0.2252,0.2261,0.1995,0.1969,0.2129,0.2113,0.2269,0.2268,0.2267,0.2266,0.2265,0,0.1422,0.1434,0.1482,0.1502,0.1521,0.1565,0.159,0.1655,0.1688,0.1816,0.1842,0.1977,0.2015,0.2174,0.2142,0.2205,0.2284,0.2046,0.188,0.2146,0.2143,0.2128,0.2113,0.1673,0.1667,0.1663,0.1659,0,0.1398,0.1417,0.144,0.1471,0.1502,0.1534,0.1578,0.1609,0.169,0.1743,0.1824,0.1874,0.1967,0.1883,0.1963,0.1958,0.2,0.1953,0.2332,0.1655,0.1592,0.1585,0.159,0.1619,0.1623,0.1626,0.1628,0.1629,0.1386,0.1388,0.142,0.1439,0.1472,0.149,0.1487,0.1537,0.1575,0.1603,0.171,0.1689,0.1697,0.1632,0.1625,0.1622,0.1756,0.1683,0.1693,0.171,0.1577,0.1512,0.1503,0.1506,0.1509,0.1511,0.1513,0,0.1364,0.1368,0.1387,0.1404,0.1404,0.1435,0.1462,0.1444,0.1442,0.1444,0.1458,0.1301,0.1222,0.1278,0.1162,0.1184,0.1142,0.1178,0.1087,0.1126,0.1162,0.0997,0.0773,0.0771,0.077,0.0768,0,0,0.1362,0.1355,0.135,0.1332,0.1338,0.1303,0.1295,0.1269,0.1249,0.1177,0.1094,0.1103,0.1165,0.092,0.0904,0.0824,0.0973,0.0788,0.1369,0.1295,0.1329,0.1428,0.1217,0,0,0,0,0]},{"header":{"parameterUnit":"m.s-1","parameterCategory":2,"la1":30.2991,"la2":30.254,"lo1":-89.0895,"lo2":-89.0444,"dy":0.0017,"dx":0.0017,"nx":28,"ny":28,"refTime":"2024-06-02T03:00:00:Z","depth":"2","parameterNumber":3,"parameterNumberName":"V-component_of_CURRENTS"},"data":[0,0,0,0,0,0,0,0,0,0,0,0,0,0,0,0,0,0,0,0,0,0,0,0,0,0,0,0,0,0,0,0,0,0,0,0,0,0,0,0,0,0,0,0,0,0,0,0,0,0,0,0,0,0,0,0,0,0,0.0026,0.0025,0,-0.0046,-0.0046,-0.0047,-0.0074,-0.0074,-0.0074,-0.0074,-0.013,-0.0132,-0.0133,0,0,0,0,0,0,0,0,0,0,0,0,0,0.0122,0.012,0.0026,0.0025,0.0024,-0.0046,-0.0046,-0.0047,-0.0074,-0.0074,-0.0074,-0.0074,-0.013,-0.0132,-0.0134,0,0,0,0,0,0,0,0,0,0,0,0,0,0.0069,0.012,0.0027,0.0002,-0.0002,-0.0045,-0.0046,-0.0047,-0.0074,-0.0074,-0.0074,-0.0074,-0.0129,-0.0131,-0.0134,-0.0152,0,0,-0.0141,-0.0142,0,0,0,0,0,0,0,0,0.0072,0.0066,0.0006,0.0003,-0.0,-0.0052,-0.0034,-0.0082,-0.0074,-0.0045,-0.0074,-0.0074,-0.0104,-0.0108,-0.012,-0.0154,-0.0157,-0.0141,-0.0143,-0.0144,-0.0144,0,0,0,0,0,0,0,0.0076,0.0069,-0.0001,0.0005,0.0001,-0.0013,-0.002,-0.0043,-0.0073,-0.0048,-0.005,-0.006,-0.0105,-0.0118,-0.0122,-0.0157,-0.0141,-0.0143,-0.0145,-0.0146,-0.021,-0.021,0,0,0,0,0,0,0.0083,0.0072,0.0001,-0.0003,0.0036,-0.0015,-0.0022,-0.0034,-0.0073,-0.008,-0.006,-0.0061,-0.0114,-0.0119,-0.0124,-0.0136,-0.0144,-0.0146,-0.0147,-0.021,-0.021,-0.0211,0,0,0,0,0,0,0.0085,0.0077,0.0004,0.0032,0.0022,-0.0016,-0.003,-0.0036,-0.0048,-0.0083,-0.0089,-0.0066,-0.0114,-0.0121,-0.0146,-0.0139,-0.0147,-0.0149,-0.021,-0.021,-0.021,-0.0169,0,0,0,0,0,0,0.0088,0.0078,0.0077,0.0033,0.002,-0.0017,-0.003,-0.0038,-0.0056,-0.0057,-0.009,-0.0096,-0.0114,-0.0142,-0.0148,-0.0143,-0.0151,-0.0209,-0.021,-0.021,-0.017,-0.0167,-0.0166,0,0,0,0,0,0.0092,0.0087,0.0077,0.0069,0.0018,-0.0017,-0.0025,-0.005,-0.0056,-0.006,-0.0085,-0.0094,-0.015,-0.0145,-0.0152,-0.0146,-0.0209,-0.021,-0.021,-0.017,-0.0168,-0.0166,0,0,0,0,0,0,0.013,0.0082,0.0071,0.0053,0.0023,-0.0022,-0.0029,-0.0048,-0.0072,-0.0071,-0.0101,-0.0109,-0.0126,-0.0147,-0.014,-0.0168,-0.018,-0.0182,-0.0147,-0.0145,-0.0143,-0.0103,-0.0153,0,0,0,0,0,0.0137,0.0119,0.0076,0.0062,0.005,0.0012,-0.0004,-0.0023,-0.0053,-0.0063,-0.0089,-0.0114,-0.0135,-0.0148,-0.017,-0.0188,-0.0178,-0.019,-0.0188,-0.0186,-0.016,-0.0151,-0.0145,-0.0213,-0.0213,-0.0213,0,0,0.0147,0.0119,0.0109,0.0069,0.0046,0.0033,0.0004,-0.0018,-0.0026,-0.0065,-0.0079,-0.0108,-0.0139,-0.0156,-0.0166,-0.0172,-0.0162,-0.0187,-0.0185,-0.0159,-0.0151,-0.0144,-0.0138,-0.0213,-0.0213,-0.0213,0,0,0.0158,0.0136,0.0126,0.0106,0.0072,0.0049,0.0045,0.0002,-0.001,-0.0034,-0.006,-0.0079,-0.0123,-0.0136,-0.0149,-0.0151,-0.0151,-0.0168,-0.0126,-0.0119,-0.0112,-0.0106,-0.008,-0.0072,-0.0169,-0.0169,-0.0168,0,0.0173,0.0155,0.012,0.0109,0.01,0.0061,0.0057,0.0037,-0.0008,-0.001,-0.0031,-0.0071,-0.0104,-0.0108,-0.0114,-0.0142,-0.0134,-0.0131,-0.0113,-0.0107,-0.0102,-0.0076,-0.0068,-0.0167,-0.0167,-0.0167,-0.0167,0,0.0176,0.0167,0.0162,0.0138,0.0125,0.0114,0.0084,0.0074,0.0053,0.0034,0.0024,-0.0017,-0.0033,-0.0058,-0.0089,-0.0072,-0.0077,-0.0109,-0.0111,-0.0091,-0.0067,-0.0059,-0.0164,-0.0165,-0.0165,-0.0166,0,0,0.0193,0.0169,0.017,0.0172,0.0142,0.0132,0.0129,0.0115,0.0132,0.009,0.0113,0.0061,0.0049,0.0034,-0.0004,-0.0006,0.0025,-0.004,-0.0041,0.0002,0.0061,-0.0007,-0.0005,-0.0007,-0.0005,-0.0004,0.0065,0,0.0208,0.0208,0.0188,0.0197,0.0197,0.0175,0.0181,0.0168,0.0158,0.0171,0.014,0.0145,0.008,0.0084,0.007,0.0035,0.0048,0.0011,0.0023,0.0025,-0.0026,0.0002,0.0015,0.0071,0.0073,0.0074,0.0075,0,0.0216,0.0217,0.0231,0.0237,0.0238,0.0244,0.0264,0.0264,0.0271,0.0268,0.0269,0.0248,0.0244,0.019,0.0169,0.0146,0.0119,0.0093,0.0094,0.0028,-0.0029,0.0049,0.0086,0.0089,0.0088,0.0087,0.0086,0,0.0246,0.0247,0.0266,0.0266,0.0267,0.0284,0.0291,0.0299,0.0326,0.0347,0.0384,0.0356,0.038,0.0323,0.0262,0.0218,0.0253,0.0183,0.0109,0.0105,0.0119,0.0113,0.0198,0.0198,0.0197,0.0197,0.0197,0,0.0262,0.0277,0.0289,0.0299,0.0344,0.033,0.0386,0.0389,0.0428,0.0487,0.045,0.0504,0.0417,0.0415,0.0324,0.0252,0.0305,0.0141,0.012,0.0131,0.0124,0.0135,0.0127,0.02,0.0199,0.0199,0.0198,0,0.028,0.0287,0.0314,0.0339,0.0357,0.0392,0.0452,0.0496,0.0527,0.0611,0.0632,0.0643,0.0623,0.0541,0.0478,0.0354,0.0276,0.0249,0.0274,0.0251,0.0107,0.01,0.0152,0.015,0.0149,0.0147,0.0146,0,0.0288,0.0304,0.0352,0.0389,0.0405,0.0461,0.0509,0.0545,0.0599,0.0698,0.0748,0.0774,0.0757,0.0639,0.0476,0.0326,0.0314,0.0229,0.0121,0.0129,0.0104,0.01,0.0095,0.0174,0.0173,0.0173,0.0172,0,0.0311,0.0331,0.036,0.0432,0.0492,0.0558,0.0627,0.0679,0.0741,0.0809,0.089,0.0884,0.0792,0.0625,0.0428,0.0324,0.023,0.0204,0.0252,0.0153,0.0147,0.0122,0.0118,0.0167,0.0167,0.0168,0.0168,0.0168,0.034,0.0367,0.0416,0.0479,0.0557,0.0636,0.0677,0.0746,0.0827,0.0877,0.0921,0.0871,0.0747,0.0425,0.0318,0.0203,0.018,0.0089,0.0094,0.0098,0.0057,0.0045,0.0042,0.0042,0.0042,0.0041,0.0041,0,0.0372,0.0404,0.0462,0.0546,0.0621,0.0668,0.0746,0.0746,0.081,0.0856,0.0866,0.0672,0.0518,0.0403,0.0214,0.007,0.0088,0.0035,0.0091,0.0096,0.0101,0.0062,0.0048,0.0047,0.0047,0.0047,0,0,0.0397,0.044,0.0458,0.0578,0.0655,0.0734,0.0768,0.0753,0.075,0.0705,0.0675,0.061,0.0495,0.0334,0.0217,0.0141,0.0144,0.0123,0.0129,0.0216,0.0222,0.0141,0.0087,0,0,0,0,0]}],[{"header":{"parameterUnit":"m.s-1","parameterCategory":2,"la1":30.2991,"la2":30.254,"lo1":-89.0895,"lo2":-89.0444,"dy":0.0017,"dx":0.0017,"nx":28,"ny":28,"refTime":"2024-06-02T03:00:00:Z","depth":"4","parameterNumber":2,"parameterNumberName":"U-component_of_CURRENTS"},"data":[0,0,0,0,0,0,0,0,0,0,0,0,0,0,0,0,0,0,0,0,0,0,0,0,0,0,0,0,0,0,0,0,0,0,0,0,0,0,0,0,0,0,0,0,0,0,0,0,0,0,0,0,0,0,0,0,0,0,0.0695,0.0695,0,0.0713,0.0713,0.0713,0.0743,0.0744,0.0745,0.0746,0.077,0.077,0.077,0,0,0,0,0,0,0,0,0,0,0,0,0,0.0694,0.0694,0.0695,0.0695,0.0696,0.0713,0.0713,0.0713,0.0743,0.0744,0.0745,0.0746,0.077,0.077,0.077,0,0,0,0,0,0,0,0,0,0,0,0,0,0.07,0.0694,0.0695,0.0714,0.0716,0.0713,0.0713,0.0713,0.0743,0.0744,0.0745,0.0746,0.077,0.077,0.077,0.0748,0,0,0.077,0.077,0,0,0,0,0,0,0,0,0.07,0.07,0.0711,0.0713,0.0715,0.0728,0.0722,0.0726,0.0743,0.0731,0.0746,0.0747,0.0757,0.0758,0.0757,0.0749,0.0751,0.077,0.077,0.077,0.077,0,0,0,0,0,0,0,0.0699,0.0699,0.0701,0.0711,0.0714,0.0724,0.0726,0.0722,0.0737,0.0732,0.0735,0.0739,0.0758,0.0757,0.0758,0.0751,0.077,0.077,0.077,0.077,0.0799,0.08,0,0,0,0,0,0,0.0698,0.0699,0.07,0.0701,0.0712,0.0723,0.0725,0.0722,0.0737,0.074,0.0738,0.0741,0.0756,0.0758,0.0759,0.0806,0.077,0.077,0.077,0.0798,0.0799,0.08,0,0,0,0,0,0,0.0698,0.0698,0.0699,0.0702,0.0703,0.0722,0.0718,0.0722,0.0737,0.0741,0.0745,0.0752,0.0757,0.0759,0.0773,0.0804,0.077,0.077,0.0797,0.0798,0.08,0.0853,0,0,0,0,0,0,0.0698,0.0697,0.07,0.0702,0.0703,0.0699,0.0717,0.0721,0.0738,0.0741,0.0754,0.0757,0.0758,0.0773,0.0773,0.0803,0.077,0.0796,0.0798,0.0799,0.0851,0.0856,0.0861,0,0,0,0,0,0.0697,0.0695,0.0699,0.07,0.0704,0.0699,0.07,0.0717,0.0737,0.0736,0.0757,0.0757,0.0783,0.0773,0.0773,0.0804,0.0796,0.0797,0.0799,0.0848,0.0855,0.0861,0,0,0,0,0,0,0.0694,0.0697,0.0703,0.0701,0.0701,0.0705,0.0712,0.0723,0.0737,0.0751,0.0759,0.0762,0.0791,0.0782,0.0772,0.0816,0.0792,0.0794,0.083,0.0836,0.0841,0.0845,0.077,0,0,0,0,0,0.0694,0.0695,0.0695,0.0694,0.0696,0.0707,0.0711,0.0722,0.0733,0.0741,0.0756,0.0774,0.0793,0.0803,0.081,0.0826,0.0835,0.0847,0.0853,0.0857,0.086,0.095,0.0964,0.0806,0.0806,0.0806,0,0,0.0693,0.0695,0.0696,0.0694,0.07,0.0703,0.0712,0.0721,0.0735,0.074,0.0771,0.079,0.08,0.0828,0.084,0.0828,0.0893,0.0859,0.0863,0.0864,0.0953,0.0969,0.0983,0.0807,0.0807,0.0807,0,0,0.0689,0.0693,0.0694,0.0694,0.0703,0.0709,0.0714,0.0726,0.0744,0.0765,0.0788,0.0819,0.0838,0.0859,0.087,0.0903,0.0919,0.0917,0.0949,0.1037,0.1051,0.1064,0.1039,0.105,0.092,0.0921,0.0921,0,0.0688,0.0688,0.0692,0.0693,0.0698,0.0714,0.0716,0.0732,0.0752,0.0776,0.078,0.0847,0.0851,0.0903,0.0923,0.0916,0.0945,0.0927,0.1047,0.106,0.1073,0.1045,0.1056,0.0923,0.0923,0.0923,0.0923,0,0.0683,0.0687,0.0688,0.0696,0.0701,0.0704,0.0723,0.0741,0.0772,0.0801,0.0861,0.0878,0.093,0.0936,0.0941,0.1033,0.1014,0.1046,0.1036,0.1093,0.1057,0.1068,0.0927,0.0926,0.0926,0.0925,0,0,0.0675,0.0681,0.0684,0.0689,0.0703,0.0707,0.0732,0.0764,0.0813,0.0842,0.091,0.0943,0.099,0.1006,0.1029,0.1089,0.1176,0.1118,0.1121,0.1098,0.1317,0.1172,0.1168,0.1268,0.1272,0.1274,0.1236,0,0.0671,0.0669,0.0677,0.0688,0.0691,0.0711,0.0739,0.0778,0.0831,0.0903,0.0944,0.1021,0.101,0.1064,0.1126,0.1181,0.1218,0.1178,0.126,0.1259,0.1132,0.1182,0.1286,0.1244,0.1247,0.1248,0.125,0,0.0671,0.0671,0.0674,0.0694,0.07,0.0718,0.078,0.0811,0.0908,0.096,0.1046,0.1103,0.118,0.1185,0.1283,0.1277,0.1304,0.1321,0.1322,0.118,0.1136,0.1189,0.1269,0.1267,0.1266,0.1265,0.1263,0,0.0673,0.0674,0.0678,0.0681,0.0707,0.0729,0.0758,0.0841,0.0885,0.1026,0.1087,0.1195,0.1244,0.1335,0.1331,0.1364,0.1409,0.146,0.1324,0.1309,0.1427,0.1415,0.154,0.154,0.154,0.1541,0.1541,0,0.0667,0.0676,0.0685,0.0692,0.0716,0.0745,0.0805,0.0861,0.096,0.1019,0.1138,0.1171,0.1306,0.1328,0.136,0.1327,0.1431,0.1323,0.1315,0.1437,0.1427,0.143,0.1418,0.1539,0.1539,0.154,0.154,0,0.0674,0.0674,0.0686,0.071,0.072,0.075,0.0805,0.086,0.0959,0.1041,0.1091,0.118,0.1219,0.1261,0.1348,0.1318,0.1331,0.1284,0.1314,0.1307,0.1165,0.1156,0.119,0.1185,0.1181,0.1177,0.1174,0,0.0671,0.0679,0.0699,0.0711,0.0726,0.0761,0.0793,0.0865,0.091,0.1,0.1026,0.1089,0.1135,0.109,0.1167,0.1189,0.1185,0.1159,0.1262,0.1153,0.1142,0.1139,0.1136,0.1168,0.1166,0.1165,0.1164,0,0.067,0.0689,0.0699,0.0716,0.0741,0.0752,0.0791,0.0799,0.0873,0.0966,0.0951,0.0972,0.0975,0.101,0.0997,0.1022,0.1185,0.1118,0.1129,0.1227,0.1127,0.1119,0.1121,0.115,0.1152,0.1153,0.1154,0,0.0676,0.0679,0.0693,0.0702,0.0724,0.0714,0.0738,0.0745,0.0771,0.0861,0.0821,0.0879,0.0928,0.0914,0.0902,0.0914,0.0963,0.0968,0.0989,0.1006,0.097,0.0817,0.074,0,0,0,0,0,0.0662,0.0653,0.0672,0.0654,0.0679,0.0686,0.0719,0.0744,0.078,0.0756,0.079,0.0789,0.0795,0.0798,0.079,0.0862,0.0977,0.0849,0.0996,0.107,0.1087,0.1065,0,0,0,0,0,0,0.0646,0.066,0.0652,0.0605,0.0595,0.0602,0.0618,0.0659,0.0629,0.0682,0.068,0.0742,0.0753,0.0797,0.0774,0.0785,0.0862,0.0885,0.0883,0.1061,0.1076,0.1089,0.1073,0,0,0,0,0]},{"header":{"parameterUnit":"m.s-1","parameterCategory":2,"la1":30.2991,"la2":30.254,"lo1":-89.0895,"lo2":-89.0444,"dy":0.0017,"dx":0.0017,"nx":28,"ny":28,"refTime":"2024-06-02T03:00:00:Z","depth":"4","parameterNumber":3,"parameterNumberName":"V-component_of_CURRENTS"},"data":[0,0,0,0,0,0,0,0,0,0,0,0,0,0,0,0,0,0,0,0,0,0,0,0,0,0,0,0,0,0,0,0,0,0,0,0,0,0,0,0,0,0,0,0,0,0,0,0,0,0,0,0,0,0,0,0,0,0,0.0002,0.0002,0,0.0033,0.0034,0.0034,0.0041,0.0041,0.0041,0.004,0.0096,0.0098,0.01,0,0,0,0,0,0,0,0,0,0,0,0,0,-0.0025,-0.0025,0.0002,0.0002,0.0003,0.0033,0.0034,0.0034,0.0041,0.0041,0.004,0.004,0.0096,0.0098,0.01,0,0,0,0,0,0,0,0,0,0,0,0,0,-0.0005,-0.0024,0.0002,0.0009,0.001,0.0033,0.0034,0.0035,0.0041,0.0041,0.004,0.004,0.0095,0.0097,0.01,0.0124,0,0,0.0108,0.0109,0,0,0,0,0,0,0,0,-0.0006,-0.0004,0.0008,0.0009,0.001,0.0032,0.0045,0.0066,0.0041,0.003,0.004,0.004,0.0077,0.0081,0.0088,0.0127,0.013,0.0108,0.011,0.0111,0.0112,0,0,0,0,0,0,0,-0.0008,-0.0005,0.0015,0.0008,0.001,0.0021,0.0023,0.0049,0.0056,0.0031,0.0031,0.0034,0.0078,0.0086,0.009,0.013,0.0108,0.0111,0.0112,0.0113,0.021,0.0211,0,0,0,0,0,0,-0.0013,-0.0006,0.0014,0.0016,0.0,0.0021,0.0024,0.0026,0.0056,0.0059,0.0035,0.0034,0.0082,0.0087,0.0092,0.013,0.0111,0.0113,0.0115,0.0209,0.021,0.0211,0,0,0,0,0,0,-0.0014,-0.0012,0.0013,0.0005,0.0009,0.0022,0.0025,0.0027,0.0035,0.0058,0.0062,0.004,0.0081,0.0088,0.0123,0.0131,0.0115,0.0117,0.0208,0.0209,0.0211,0.0201,0,0,0,0,0,0,-0.0015,-0.0012,-0.0012,0.0005,0.0009,0.0028,0.0025,0.0028,0.0037,0.0037,0.0064,0.0068,0.0082,0.0119,0.0126,0.0135,0.0119,0.0207,0.0209,0.021,0.02,0.0202,0.0203,0,0,0,0,0,-0.0016,-0.0014,-0.0012,-0.001,0.0009,0.0028,0.0032,0.004,0.0037,0.0044,0.0067,0.0068,0.0136,0.0123,0.013,0.014,0.0206,0.0208,0.021,0.0199,0.0201,0.0203,0,0,0,0,0,0,-0.0028,-0.0012,-0.001,-0.0005,0.0011,0.0029,0.0035,0.0041,0.0063,0.0064,0.0083,0.009,0.0125,0.0138,0.0123,0.0175,0.017,0.0174,0.0159,0.0162,0.0163,0.0146,0.0121,0,0,0,0,0,-0.003,-0.0023,-0.0007,-0.0001,0.0005,0.002,0.0028,0.0036,0.0057,0.0065,0.0085,0.0111,0.0141,0.0155,0.0184,0.0212,0.0187,0.0224,0.0225,0.0226,0.0219,0.018,0.0177,0.0219,0.0219,0.0219,0,0,-0.0034,-0.0024,-0.0021,-0.0003,0.0008,0.0022,0.0024,0.0039,0.0055,0.007,0.0098,0.0121,0.0152,0.0185,0.0201,0.0195,0.0204,0.0229,0.023,0.0221,0.0182,0.0177,0.0173,0.022,0.022,0.022,0,0,-0.0036,-0.0029,-0.0024,-0.0008,0.0011,0.0024,0.0028,0.005,0.0062,0.0094,0.0111,0.0133,0.0181,0.0197,0.0214,0.0244,0.0218,0.0259,0.0249,0.0212,0.0207,0.0203,0.0166,0.0158,0.0256,0.0255,0.0255,0,-0.0042,-0.0031,-0.0018,-0.0006,0.0008,0.0024,0.0038,0.0056,0.0088,0.0099,0.0103,0.0158,0.0183,0.0214,0.0227,0.0245,0.0217,0.0235,0.021,0.0205,0.0201,0.0164,0.0155,0.0255,0.0255,0.0255,0.0255,0,-0.0037,-0.0026,-0.0021,0.0001,0.0018,0.0034,0.006,0.0081,0.0097,0.0109,0.0141,0.0169,0.0193,0.0211,0.023,0.0224,0.0213,0.0216,0.0195,0.0195,0.0158,0.0149,0.0255,0.0255,0.0255,0.0255,0,0,-0.0049,-0.0024,-0.002,-0.0007,0.0025,0.0041,0.0071,0.0099,0.0109,0.0135,0.014,0.0192,0.0187,0.0205,0.0224,0.02,0.0151,0.0193,0.0192,0.014,0.006,0.0091,0.0084,0.014,0.0139,0.0138,0.0046,0,-0.0047,-0.0029,-0.0011,0.0015,0.003,0.006,0.0084,0.0111,0.0128,0.0137,0.0154,0.0168,0.019,0.0194,0.0174,0.016,0.0128,0.0176,0.0083,0.008,0.0093,0.0075,0.0133,0.0039,0.0037,0.0035,0.0034,0,-0.0042,-0.0028,-0.001,0.0025,0.0034,0.0051,0.0088,0.0111,0.0129,0.0138,0.0142,0.0146,0.0135,0.0143,0.0089,0.0115,0.0085,0.0067,0.0062,0.0086,0.0095,0.0042,0.0018,0.0019,0.002,0.0021,0.0022,0,-0.0048,-0.0021,-0.0007,0.0006,0.0043,0.0059,0.008,0.0106,0.0125,0.0124,0.0122,0.0107,0.009,0.0052,0.003,0.0044,-0.0046,-0.0034,-0.0036,-0.0035,-0.0033,-0.0027,-0.0091,-0.009,-0.009,-0.009,-0.009,0,-0.0041,-0.0026,-0.0012,0.0002,0.002,0.0048,0.0066,0.0089,0.0102,0.0115,0.011,0.0109,0.0061,0.002,-0.0001,-0.0046,-0.0078,-0.0049,-0.006,-0.0032,-0.0025,-0.004,-0.0033,-0.0093,-0.0093,-0.0092,-0.0091,0,-0.0038,-0.0031,-0.0012,0.0013,0.002,0.0033,0.0063,0.0077,0.0086,0.0098,0.0095,0.008,0.0037,-0.0004,-0.0076,-0.0088,-0.013,-0.0137,-0.0113,-0.0119,-0.009,-0.0082,-0.0165,-0.0164,-0.0164,-0.0164,-0.0164,0,-0.0034,-0.0026,-0.0008,-0.0003,0.0008,0.0025,0.0044,0.0069,0.0087,0.0096,0.0103,0.006,0.0052,-0.0037,-0.0077,-0.0141,-0.0131,-0.0175,-0.0121,-0.0098,-0.01,-0.0092,-0.0085,-0.0163,-0.0163,-0.0163,-0.0163,0,-0.0025,-0.0024,-0.0009,-0.0002,0.0011,0.0028,0.0053,0.0065,0.0099,0.0102,0.0112,0.0084,0.0033,-0.002,-0.0078,-0.0111,-0.0159,-0.0173,-0.0173,-0.0123,-0.0097,-0.0098,-0.0091,-0.0163,-0.0163,-0.0163,-0.0163,0,-0.0022,-0.0021,-0.0012,0.0001,0.0011,0.0028,0.0044,0.0073,0.0092,0.0117,0.0116,0.0084,0.0055,-0.0005,-0.0048,-0.009,-0.0087,-0.0101,-0.0105,-0.0107,-0.0045,-0.0001,-0.0058,0,0,0,0,0,-0.0023,-0.0023,-0.0011,-0.0002,0.0012,0.0018,0.0053,0.0073,0.0101,0.0117,0.0124,0.0097,0.0045,0.0016,-0.0019,-0.0047,-0.0106,-0.0091,-0.0128,-0.0159,-0.0159,-0.0091,0,0,0,0,0,0,-0.003,-0.0023,-0.0014,-0.0005,-0.0,0.0017,0.0038,0.0063,0.0078,0.0102,0.0077,0.008,0.0026,0.006,-0.0025,-0.0037,-0.0066,-0.0113,-0.0114,-0.0158,-0.0159,-0.0159,-0.009,0,0,0,0,0]}]]